Regional Weather Roundup
Issued by NWS Jackson, KY

Home | Current Version | Previous Version | Graphics & Text | Print | Product List | Glossary On
Versions: 1 2 3 4 5 6 7 8 9 10 11 12 13 14 15 16 17 18 19 20 21 22 23 24 25 26 27 28 29 30 31 32 33 34 35 36 37 38 39 40 41 42 43 44 45 46 47 48 49 50
000
ASUS43 KJKL 180819
RWRJKL

EAST KENTUCKY HOURLY WEATHER ROUNDUP
NATIONAL WEATHER SERVICE JACKSON KY
300 AM EST THU DEC 18 2014

NOTE: "FAIR" INDICATES FEW OR NO CLOUDS BELOW 12,000 FEET WITH
NO SIGNIFICANT WEATHER AND/OR OBSTRUCTIONS TO VISIBILITY.

* THESE REPORTS ARE NOT UNDER NWS QUALITY CONTROL AND MAY NOT
  REPORT WEATHER SUCH AS PRECIPITATION AND FOG.

KYZ079-080-083-085-087-088-110-112-115-119-120-180900
...EASTERN KENTUCKY...

CITY           SKY/WX    TMP DP  RH WIND       PRES   REMARKS
JACKSON        CLOUDY    29  23  78 CALM      30.24R
LONDON         PTCLDY    26  22  84 CALM      30.24S FOG
SOMERSET*      CLOUDY    25  25 100 CALM      30.27S FOG
MONTICELLO*    CLEAR     22  21  96 CALM      30.28S FOG
MIDDLESBORO*   MOCLDY    26  26  97 CALM      30.23F
HARLAN APT*    CLOUDY    30  30 100 CALM      30.21S
HAZARD APT*    CLOUDY    28  28 100 CALM      30.25R
BLACK MTN*       N/A     21  21 100 NW3         N/A
PIKEVILLE APT* CLOUDY    28  25  86 NW7       30.22R WCI  21
BIG SANDY*     CLOUDY    30  26  83 CALM      30.24R
MOREHEAD APT*  CLOUDY    28  21  74 NW3       30.28S
ASHLAND*       CLOUDY    30  21  69 N6        30.26R WCI  24
$$

KYZ035-036-041-042-044-050-067-078-099-180900
...CENTRAL KENTUCKY...

CITY           SKY/WX    TMP DP  RH WIND       PRES   REMARKS
MT STERLING*   CLOUDY    30  23  74 N5        30.27R WCI  25
FLEMING/MASON* CLOUDY    27  21  80 NW3       30.28S
DANVILLE*      MOCLDY    25  23  93 CALM      30.27S
RICHMOND*      CLOUDY    27  25  93 CALM      30.26R
LEXINGTON      CLOUDY    28  22  78 N7        30.26S WCI  21
FRANKFORT      CLOUDY    29  21  72 N5        30.26S WCI  24
$$

KYZ091>093-OHZ055-061-077-WVZ005-015-034-035-042-180900
...SOUTHERN OHIO/WEST VIRGINIA...

CITY           SKY/WX    TMP DP  RH WIND       PRES   REMARKS
COVINGTON      CLOUDY    27  18  69 N7        30.28R WCI  19
COLUMBUS       CLOUDY    27  18  69 NW8       30.24S WCI  19
DAYTON         CLOUDY    27  19  72 W8        30.26S WCI  19
WILMINGTON     CLOUDY    25  18  74 W7        30.26R WCI  17
HUNTINGTON     CLOUDY    30  22  72 NW3       30.25R
CHARLESTON     CLOUDY    32  23  69 N6        30.23R WCI  26
PINEVILLE*     CLOUDY    33  29  84 MISG      30.23R
BECKLEY        CLOUDY    27  20  75 NW10      30.13R WCI  17
BLUEFIELD      CLOUDY    28  21  75 NW10G22   30.11S WCI  19
$$

VAZ002-007-008-TNZ017-027-036-066-071-180900
...SOUTHWEST VIRGINIA/EAST TENNESSEE...

CITY           SKY/WX    TMP DP  RH WIND       PRES   REMARKS
WISE*          CLOUDY    30  28  93 NW5       30.16R WCI  25
JONESVILLE*    PTSUNNY   27  27 100 CALM      30.23S
ABINGDON*      CLEAR     31  29  91 CALM      30.16S
BRISTOL        CLEAR     27  25  92 N3        30.19R
KNOXVILLE      PTCLDY    33  28  81 CALM      30.22S
OAK RIDGE      CLEAR     31  28  89 CALM      30.23S
CROSSVILLE     CLOUDY    33  26  75 N3        30.19R
NASHVILLE      DRIZZLE   34  29  82 N3        30.28R
$$

...KEY TO REMARKS...
VSB - VISIBILITY IN MILES
WCI - WIND CHILL INDEX
HX  - HEAT INDEX

$$



USA.gov is the U.S. government's official web portal to all federal, state and local government web resources and services.